Home   Weather   Baghdad   Past weeks

Flag for Iraq Past Weather in Baghdad, Iraq — Yesterday and Last 2 Weeks

Now
50 °F

Overcast.


Feels Like: 47 °F
Forecast: 52 / 66 °F
Wind: 7 mph from Southeast

Location: Ilam

Current Time: Dec 4, 2016 at 9:35:58 pm

Latest Report: Dec 4, 2016 at 9:00 pm


Visibility: N/A

Pressure: 30.30 "Hg

Humidity: 47%

Dew Point: 30 °F

Location of BaghdadLocation

Past Weather in Baghdad — Graph

°F

Baghdad Temperature Yesterday

Maximum temperature yesterday: 55 °F (at 2:00 pm)
Minimum temperature yesterday: 39 °F (at 4:00 am)
Average temperature yesterday: 45 °F

High & Low Weather Summary for the Past Weeks

 TemperatureHumidityPressure
High63 °F (Nov 29, 2:00 pm)100% (Dec 1, 2:30 pm)30.36 "Hg (Dec 1, 2:30 pm)
Low27 °F (Nov 25, 6:00 am)4% (Nov 23, 10:30 am)29.92 "Hg (Dec 2, 4:00 am)
Average46 °F39%30.15 "Hg
* Reported Nov 19 8:00 pm — Dec 4 8:00 pm, Baghdad, Weather by CustomWeather, © 2016

Note: Actual official high and low records may vary slightly from our data, if they occured in-between our weather recording intervals... More about our weather records

Advertising

Baghdad Weather History for the Previous 24 Hours

Scroll right to see more
 ConditionsComfort  
Time TempWeatherWind HumidityBarometerVisibility
8:00 pm
Sun, Dec 4
46 °FClear.5 mph57%30.30 "Hg10 mi
7:30 pm48 °FCool.7 mph54%N/AN/A
7:00 pm46 °FClear.5 mph57%30.30 "Hg10 mi
6:30 pm48 °FCool.7 mph54%N/AN/A
6:00 pm46 °FClear.5 mph53%30.30 "Hg10 mi
5:00 pm54 °FSunny.5 mph35%30.30 "Hg10 mi
4:30 pm54 °FSunny.2 mph35%30.30 "Hg10 mi
4:00 pm59 °FSunny.5 mph27%30.30 "Hg10 mi
3:30 pm59 °FSunny.7 mph23%30.30 "Hg10 mi
3:00 pm61 °FSunny.5 mph15%30.30 "Hg10 mi
2:00 pm61 °FSunny.9 mph13%30.30 "Hg10 mi
1:00 pm61 °FSunny.9 mph11%30.33 "Hg10 mi
12:30 pm63 °FSunny.7 mph12%30.33 "Hg10 mi
12:00 pm61 °FSunny.7 mph16%30.33 "Hg10 mi
11:30 am61 °FSunny.5 mph20%30.33 "Hg10 mi
11:00 am59 °FSunny.2 mph20%30.33 "Hg10 mi
10:00 am52 °FSunny.9 mph38%30.33 "Hg10 mi
9:00 am45 °FSunny.7 mph53%30.33 "Hg10 mi
8:30 am43 °FSunny.5 mph53%30.36 "Hg10 mi
8:00 am39 °FSunny.5 mph56%30.36 "Hg10 mi
7:00 am34 °FClear.7 mph70%30.33 "Hg10 mi
6:00 am34 °FClear.7 mph70%30.33 "Hg10 mi
5:00 am34 °FClear.5 mph70%30.33 "Hg10 mi
4:30 am34 °FChilly.7 mph75%N/AN/A
3:30 am34 °FChilly.7 mph70%N/AN/A
3:00 am36 °FClear.5 mph65%30.33 "Hg10 mi
2:30 am36 °FChilly.5 mph70%N/AN/A
1:30 am36 °FChilly.2 mph70%N/AN/A
1:00 am34 °FClear.5 mph75%30.33 "Hg10 mi
12:30 am37 °FChilly.5 mph70%N/AN/A
12:00 am39 °FClear.5 mph75%30.33 "Hg10 mi
11:00 pm
Sat, Dec 3
39 °FClear.5 mph81%30.36 "Hg10 mi
10:30 pm39 °FChilly.5 mph81%N/AN/A
10:00 pm41 °FClear.5 mph81%30.36 "Hg10 mi
9:30 pm41 °FQuite cool.5 mph81%N/AN/A
9:00 pm43 °FClear.5 mph81%30.36 "Hg10 mi
Weather by CustomWeather, © 2016

See weather overviewHow to use our weather pages